Regional Weather Roundup
Issued by NWS

Home | Current Version | Previous Version | Text Only | Print | Product List | Glossary Off
Versions: 1 2 3 4 5 6 7 8 9 10 11 12 13 14 15 16 17 18 19 20 21 22 23 24 25 26 27 28 29 30 31 32 33 34 35 36 37 38 39 40 41 42 43 44 45 46 47 48 49 50

000
ASUS43 KFSD 171210
RWRSD

WEATHER ROUNDUP FOR SOUTH DAKOTA
NATIONAL WEATHER SERVICE SIOUX FALLS SD
700 AM CDT THU AUG 17 2017

NOTE: "FAIR" INDICATES FEW OR NO CLOUDS BELOW 12,000 FEET WITH NO
SIGNIFICANT WEATHER AND/OR OBSTRUCTIONS TO VISIBILITY.


SDZ001>005-009-010-012>017-171300-
NORTHWEST AND NORTH CENTRAL SOUTH DAKOTA

CITY           SKY/WX    TMP DP  RH WIND       PRES   REMARKS
BUFFALO          N/A     55  49  80 S6        29.85R
FAITH            N/A     56  49  77 S15       29.92S
MOBRIDGE       CLEAR     53  51  93 CALM      29.89R FOG
$$

SDZ012>016-024>037-041>051-057-063-072>074-171300-
SOUTHWEST AND SOUTH CENTRAL SOUTH DAKOTA

CITY           SKY/WX    TMP DP  RH WIND       PRES   REMARKS
RAPID CTY ARPT CLEAR     52  48  86 CALM      29.94F
PIERRE         CLEAR     53  49  86 SW7       29.91R
CUSTER         CLOUDY    53  41  63 W6        30.09S
ELLSWORTH AFB  CLEAR     55  50  83 SW8       29.93S
PHILIP         CLEAR     49  48  97 CALM      29.94S
PINE RIDGE     CLEAR     50  48  93 CALM      29.99F
SPEARFISH      FAIR      70  37  30 SW16G24   29.95R
WINNER         FAIR      57  49  74 SW8       29.96R
$$

SDZ004>011-016>023-039-040-171300-
NORTHEAST SOUTH DAKOTA

CITY           SKY/WX    TMP DP  RH WIND       PRES   REMARKS
ABERDEEN       CLEAR     57  55  93 NW7       29.86R
WATERTOWN      CLOUDY    61  59  93 NW18G25   29.81R
BROOKINGS      CLOUDY    60  58  92 NW17G25   29.81R
SISSETON         N/A     62  60  93 NW17      29.79R
$$

SDZ017-020-022-023-036>040-048>070-171300-
SOUTHEAST SOUTH DAKOTA

CITY           SKY/WX    TMP DP  RH WIND       PRES   REMARKS
SIOUX FALLS    PTCLDY    61  59  93 NW10      29.83R
HURON          CLEAR     55  54  96 NW9       29.87R
CHAMBERLAIN    CLEAR     55  55  98 W6        29.93R
MITCHELL       CLEAR     57  55  93 W8        29.89R
YANKTON        CLEAR     60  57  89 W10       29.88R
$$

ABBREVIATIONS USED IN REMARKS
   TC - TEMPERATURE IN CELSIUS
  WCI - WIND CHILL INDEX
   HX - HEAT INDEX
  VSB - VISIBILITY





USA.gov is the U.S. government's official web portal to all federal, state and local government web resources and services.